Content
SEND FEEDBACK

Daily
Averages
Monthly
Summary
Mexico

JUCHITEPEC, MÉXICO


Home > North America > Mexico > México
Elevation: 8343 feet     Latitude: 19 05N     Longitude: 098 53W

WEATHER
 
SELECT A DAY
Number of Records: 211,593;   Date Range: 1/1/95 - 9/29/14
 
SHARE

PRINT THIS DATA

[ ← Previous Day ]
WEATHER ALMANAC - FEBRUARY 13, 2013
[ Next Day → ]
[ °C ]   °F
Weather ElementAverageHighLow
Temperature61.1 °F78.8 °F (12:42 pm)42.8 °F (4:42 am)
Dewpoint20.6 °F26.6 °F (8:42 am)10.4 °F (12:42 pm)
Humidity24.4 %43 % (5:46 am)7 % (12:42 pm)
Barometer30.15 in30.31 in (10:12 am)29.61 in (2:44 pm)
Wind Speed6.3 mph23 mph (6:43 pm)
Wind Gust32.2 mph (4:45 pm)
Weather ElementAverage
Visibility10.5 mi
Wind DirectionESE (97.4 °)

Weather ElementTotal
Precipitation---
Heating Degree Days4.2 (Base 65)
Growing Degree Days10.8 (Base 50)
Averaged from 39 records on February 13, 2013
WEATHER CONDITIONS BREAKOUT
WIND DIRECTION BREAKOUT
WEATHER BY HOUR - FEBRUARY 13, 2013
[ °C ]   °F
Local TimeTemperatureDewpointHumidityBarometerVisibilityWind DirectionWind SpeedGust SpeedPrecipitationEventsConditions
1:54 AM57.2 °F24.8 °F29 %30.29 in14.0 miCalmClear
2:50 AM53.6 °F23.0 °F30 %30.27 in14.0 miCalmClear
2:54 AM53.6 °F23.0 °F30 %29.77 in14.0 miCalmClear
3:47 AM48.2 °F19.4 °F32 %30.27 in14.0 miEast (80°)6.9 mphClear
3:51 AM48.2 °F19.4 °F32 %30.27 in14.0 miENE (70°)8.1 mphClear
4:42 AM42.8 °F19.4 °F39 %30.27 in12.0 miENE (70°)6.9 mphClear
4:53 AM42.8 °F21.2 °F42 %30.27 in12.0 miENE (60°)5.8 mphClear
5:46 AM44.6 °F23.0 °F43 %29.84 in10.0 miCalmClear
6:24 AM44.6 °F23.0 °F43 %30.27 in10.0 miCalmClear
6:50 AM44.6 °F21.2 °F39 %30.28 in10.0 miENE (60°)3.5 mphClear
7:20 AM42.8 °F21.2 °F42 %30.29 in10.0 miCalmClear
7:44 AM44.6 °F21.2 °F39 %30.29 in10.0 miNE (50°)3.5 mphClear
8:11 AM48.2 °F24.8 °F40 %30.28 in10.0 miENE (70°)3.5 mphClear
8:14 AM48.2 °F24.8 °F40 %30.29 in10.0 miENE (70°)3.5 mphClear
8:42 AM53.6 °F26.6 °F35 %30.29 in10.0 miNE (50°)4.6 mphClear
8:47 AM53.6 °F26.6 °F35 %29.86 in10.0 miNE (40°)3.5 mphClear
9:08 AM57.2 °F24.8 °F29 %30.30 in10.0 miENE (60°)2.3 mphClear
9:22 AM59.0 °F23.0 °F25 %30.30 in8.0 miEast (80°)3.5 mphClear
9:45 AM62.6 °F21.2 °F20 %30.30 in7.0 miESE (120°)3.5 mphClear
9:46 AM62.6 °F21.2 °F20 %30.30 in7.0 miESE (120°)3.5 mphClear
10:12 AM66.2 °F21.2 °F18 %30.31 in7.0 miEast (80°)3.5 mphClear
10:43 AM68.0 °F19.4 °F16 %30.30 in6.0 miSE (130°)4.6 mphClear
11:12 AM71.6 °F15.8 °F12 %30.28 in6.0 miEast (90°)3.5 mphClear
11:43 AM75.2 °F14.0 °F10 %30.27 in6.0 miENE (70°)4.6 mphClear
11:49 AM75.2 °F14.0 °F10 %29.72 in7.0 miEast (90°)3.5 mphClear
12:42 PM78.8 °F10.4 °F7 %30.22 in8.0 miESE (120°)5.8 mphClear
12:45 PM78.8 °F12.2 °F8 %30.22 in8.0 miESE (120°)4.6 mphClear
1:43 PM78.8 °F12.2 °F8 %30.18 in10.0 miEast (100°)4.6 mphClear
2:44 PM78.8 °F14.0 °F9 %29.61 in10.0 miSSW (200°)15.0 mphClear
3:46 PM78.8 °F17.6 °F10 %30.13 in10.0 miSouth (190°)19.6 mphClear
4:45 PM77.0 °F19.4 °F12 %30.13 in10.0 miSouth (180°)19.6 mph32.2 mphClear
5:47 PM75.2 °F23.0 °F14 %29.69 in10.0 miSSW (210°)16.1 mph27.6 mphClear
6:29 PM71.6 °F23.0 °F16 %30.16 in10.0 miSSW (200°)17.3 mph28.8 mphClear
6:43 PM71.6 °F23.0 °F16 %30.17 in12.0 miSW (220°)23.0 mphClear
7:44 PM69.8 °F26.6 °F20 %30.19 in15.0 miSW (230°)16.1 mphClear
8:44 PM68.0 °F21.2 °F17 %29.69 in15.0 miSSW (200°)12.7 mphClear
9:45 PM64.4 °F21.2 °F19 %30.24 in15.0 miCalmClear
10:49 PM60.8 °F21.2 °F22 %30.24 in15.0 miNE (50°)3.5 mphClear
11:53 PM60.8 °F21.2 °F22 %29.68 in15.0 miNW (320°)4.6 mphClear
Hourly data recorded from MMMX, located miles away from Juchitepec, México







STORIES FROM OUR PARTNERS